| time (UTC) | temp F | wind direction | speed MPH | gust MPH | rain 1hr in | rain 24hr in | rain mn in | humidity % | barometer mb |
| 20260505054153 | 64 | 163 | 1.0 | 2.0 | 0.00 | 0.00 | 0.00 | 65 | 1006.3 |
| 20260505053650 | 64 | 173 | 2.0 | 3.0 | 0.00 | 0.00 | 0.00 | 62 | 1006.4 |
| 20260505053146 | 64 | 177 | 2.0 | 3.0 | 0.00 | 0.00 | 0.00 | 63 | 1006.2 |
| 20260505052643 | 64 | 217 | 1.0 | 2.0 | 0.00 | 0.00 | 0.00 | 63 | 1006.0 |
| 20260505052141 | 64 | 171 | 2.0 | 4.0 | 0.00 | 0.00 | 0.00 | 63 | 1005.9 |
| 20260505051637 | 64 | 183 | 1.0 | 2.0 | 0.00 | 0.00 | 0.00 | 63 | 1006.0 |
| 20260505051136 | 64 | 224 | 0.0 | 5.0 | 0.00 | 0.00 | 0.00 | 62 | 1005.8 |
| 20260505050633 | 64 | 184 | 4.0 | 4.0 | 0.00 | 0.00 | 0.00 | 63 | 1005.9 |
| 20260505050131 | 64 | 176 | 3.0 | 3.0 | 0.00 | 0.00 | 0.00 | 63 | 1005.9 |
| 20260505041601 | 66 | 192 | 5.0 | 5.0 | 0.00 | 0.00 | 0.00 | 60 | 1006.3 |
| 20260505041058 | 66 | 158 | 2.0 | 6.0 | 0.00 | 0.00 | 0.00 | 61 | 1006.4 |
| 20260505040555 | 66 | 157 | 1.0 | 4.0 | 0.00 | 0.00 | 0.00 | 61 | 1006.4 |
| 20260505040053 | 66 | 179 | 2.0 | 3.0 | 0.00 | 0.00 | 0.00 | 60 | 1006.6 |
| 20260505035549 | 66 | 184 | 2.0 | 3.0 | 0.00 | 0.00 | 0.00 | 61 | 1006.5 |
| 20260505035045 | 65 | 141 | 0.0 | 4.0 | 0.00 | 0.00 | 0.00 | 61 | 1006.6 |
| 20260505034542 | 66 | 113 | 1.0 | 5.0 | 0.00 | 0.00 | 0.00 | 61 | 1006.8 |
| 20260505034039 | 66 | 155 | 1.0 | 3.0 | 0.00 | 0.00 | 0.00 | 61 | 1006.7 |
| 20260505033536 | 66 | 190 | 4.0 | 4.0 | 0.00 | 0.00 | 0.00 | 60 | 1006.4 |
| 20260505033034 | 66 | 192 | 3.0 | 4.0 | 0.00 | 0.00 | 0.00 | 60 | 1006.8 |
| 20260505032531 | 66 | 95 | 2.0 | 3.0 | 0.00 | 0.00 | 0.00 | 61 | 1006.6 |
| 20260505032028 | 66 | 186 | 3.0 | 5.0 | 0.00 | 0.00 | 0.00 | 60 | 1006.7 |
| 20260505031525 | 66 | 166 | 1.0 | 3.0 | 0.00 | 0.00 | 0.00 | 60 | 1006.7 |
| 20260505031021 | 66 | 195 | 2.0 | 3.0 | 0.00 | 0.00 | 0.00 | 60 | 1006.8 |
| 20260505030518 | 66 | 174 | 2.0 | 2.0 | 0.00 | 0.00 | 0.00 | 60 | 1006.7 |
| 20260505030015 | 66 | 147 | 0.0 | 1.0 | 0.00 | 0.00 | 0.00 | 63 | 1006.9 |
| 20260505025510 | 65 | 196 | 2.0 | 2.0 | 0.00 | 0.00 | 0.00 | 62 | 1006.8 |
| 20260505025010 | 66 | 131 | 0.0 | 2.0 | 0.00 | 0.00 | 0.00 | 63 | 1006.8 |
| 20260505024506 | 66 | 192 | 1.0 | 2.0 | 0.00 | 0.00 | 0.00 | 61 | 1006.6 |
| 20260505024003 | 66 | 168 | 3.0 | 4.0 | 0.00 | 0.00 | 0.00 | 60 | 1006.6 |
| 20260505023500 | 66 | 167 | 2.0 | 2.0 | 0.00 | 0.00 | 0.00 | 62 | 1006.6 |
| 20260505022957 | 65 | 184 | 3.0 | 3.0 | 0.00 | 0.00 | 0.00 | 63 | 1006.5 |
| 20260505022455 | 65 | 132 | 2.0 | 3.0 | 0.00 | 0.00 | 0.00 | 65 | 1006.6 |
| 20260505021952 | 65 | 181 | 2.0 | 2.0 | 0.00 | 0.00 | 0.00 | 64 | 1006.4 |
| 20260505021448 | 65 | 143 | 0.0 | 3.0 | 0.00 | 0.00 | 0.00 | 65 | 1006.3 |
| 20260505020944 | 65 | 167 | 0.0 | 2.0 | 0.00 | 0.00 | 0.00 | 64 | 1006.3 |
| 20260505020439 | 66 | 217 | 0.0 | 2.0 | 0.00 | 0.00 | 0.00 | 65 | 1006.2 |
| 20260505015937 | 65 | 183 | 2.0 | 3.0 | 0.00 | 0.00 | 0.00 | 63 | 1005.8 |
| 20260505015434 | 66 | 113 | 0.0 | 2.0 | 0.00 | 0.00 | 0.00 | 64 | 1005.7 |
| 20260505014931 | 66 | 170 | 2.0 | 3.0 | 0.00 | 0.00 | 0.00 | 61 | 1005.7 |
| 20260505014428 | 67 | 208 | 2.0 | 2.0 | 0.00 | 0.00 | 0.00 | 59 | 1005.6 |
| 20260505013925 | 68 | 200 | 2.0 | 4.0 | 0.00 | 0.00 | 0.00 | 58 | 1005.5 |
| 20260505013422 | 67 | 181 | 2.0 | 3.0 | 0.00 | 0.00 | 0.00 | 59 | 1005.6 |
| 20260505012920 | 68 | 177 | 0.0 | 3.0 | 0.00 | 0.00 | 0.00 | 59 | 1005.6 |
| 20260505012418 | 67 | 126 | 0.0 | 2.0 | 0.00 | 0.00 | 0.00 | 62 | 1005.6 |
| 20260505011914 | 67 | 171 | 1.0 | 2.0 | 0.00 | 0.00 | 0.00 | 59 | 1005.4 |
| 20260505011410 | 67 | 183 | 2.0 | 4.0 | 0.00 | 0.00 | 0.00 | 58 | 1005.4 |
| 20260505010907 | 67 | 147 | 0.0 | 3.0 | 0.00 | 0.00 | 0.00 | 60 | 1005.5 |
| 20260505010403 | 68 | 140 | 0.0 | 2.0 | 0.00 | 0.00 | 0.00 | 59 | 1005.5 |
| 20260505005859 | 68 | 194 | 2.0 | 2.0 | 0.00 | 0.00 | 0.00 | 58 | 1005.5 |
| 20260505005355 | 69 | 149 | 2.0 | 3.0 | 0.00 | 0.00 | 0.00 | 57 | 1005.4 |
| 20260505004853 | 69 | 142 | 0.0 | 4.0 | 0.00 | 0.00 | 0.00 | 58 | 1005.5 |
| 20260505004349 | 68 | 132 | 0.0 | 3.0 | 0.00 | 0.00 | 0.00 | 58 | 1005.5 |
| 20260505003847 | 69 | 119 | 0.0 | 3.0 | 0.00 | 0.00 | 0.00 | 57 | 1005.5 |
| 20260505003344 | 69 | 182 | 2.0 | 2.0 | 0.00 | 0.00 | 0.00 | 57 | 1005.3 |
| 20260505002839 | 70 | 180 | 0.0 | 0.0 | 0.00 | 0.00 | 0.00 | 56 | 1005.4 |
| 20260505002337 | 70 | 215 | 1.0 | 4.0 | 0.00 | 0.00 | 0.00 | 54 | 1005.5 |
| 20260505001835 | 70 | 144 | 2.0 | 3.0 | 0.00 | 0.00 | 0.00 | 53 | 1005.4 |
| 20260505001332 | 71 | 188 | 1.0 | 4.0 | 0.00 | 0.00 | 0.00 | 53 | 1005.4 |
| 20260505000829 | 71 | 228 | 0.0 | 3.0 | 0.00 | 0.00 | 0.00 | 54 | 1005.4 |
| 20260505000327 | 71 | 200 | 0.0 | 3.0 | 0.00 | 0.00 | 0.00 | 53 | 1005.5 |
| 20260504235823 | 72 | 300 | 2.0 | 4.0 | 0.00 | 0.00 | 0.00 | 52 | 1005.6 |
| 20260504235320 | 72 | 208 | 2.0 | 4.0 | 0.00 | 0.00 | 0.00 | 51 | 1005.7 |
| 20260504234817 | 72 | 176 | 1.0 | 2.0 | 0.00 | 0.00 | 0.00 | 50 | 1005.5 |
| 20260504234315 | 72 | 224 | 2.0 | 6.0 | 0.00 | 0.00 | 0.00 | 50 | 1005.6 |
| 20260504233811 | 72 | 142 | 1.0 | 3.0 | 0.00 | 0.00 | 0.00 | 52 | 1005.7 |
| 20260504233306 | 72 | 144 | 1.0 | 2.0 | 0.00 | 0.00 | 0.00 | 50 | 1005.7 |
| 20260504232803 | 71 | 163 | 2.0 | 5.0 | 0.00 | 0.00 | 0.00 | 50 | 1005.9 |
| 20260504232301 | 72 | 294 | 2.0 | 5.0 | 0.00 | 0.00 | 0.00 | 52 | 1005.8 |
| 20260504231758 | 72 | 218 | 4.0 | 6.0 | 0.00 | 0.00 | 0.00 | 50 | 1005.9 |
| 20260504231254 | 71 | 202 | 1.0 | 3.0 | 0.00 | 0.00 | 0.00 | 59 | 1006.0 |
| 20260504230750 | 71 | 177 | 3.0 | 3.0 | 0.00 | 0.00 | 0.00 | 55 | 1006.2 |
| 20260504230248 | 72 | 180 | 2.0 | 4.0 | 0.00 | 0.00 | 0.00 | 55 | 1006.0 |
| 20260504225747 | 72 | 180 | 4.0 | 5.0 | 0.00 | 0.00 | 0.00 | 53 | 1006.2 |
| 20260504225243 | 72 | 201 | 2.0 | 3.0 | 0.00 | 0.00 | 0.00 | 56 | 1006.2 |
| 20260504224740 | 72 | 202 | 1.0 | 4.0 | 0.00 | 0.00 | 0.00 | 54 | 1006.2 |
| 20260504224237 | 72 | 173 | 2.0 | 3.0 | 0.00 | 0.00 | 0.00 | 52 | 1006.3 |
| 20260504223733 | 72 | 188 | 2.0 | 4.0 | 0.00 | 0.00 | 0.00 | 52 | 1006.3 |
| 20260504223229 | 73 | 177 | 2.0 | 5.0 | 0.00 | 0.00 | 0.00 | 51 | 1006.4 |
| 20260504222726 | 73 | 183 | 4.0 | 5.0 | 0.00 | 0.00 | 0.00 | 51 | 1006.4 |
| 20260504222223 | 72 | 177 | 2.0 | 4.0 | 0.00 | 0.00 | 0.00 | 52 | 1006.7 |
| 20260504221721 | 73 | 300 | 0.0 | 4.0 | 0.00 | 0.00 | 0.00 | 55 | 1006.6 |
| 20260504221218 | 72 | 269 | 0.0 | 2.0 | 0.00 | 0.00 | 0.00 | 54 | 1006.8 |
| 20260504220714 | 71 | 129 | 0.0 | 2.0 | 0.00 | 0.00 | 0.00 | 56 | 1007.0 |
| 20260504220212 | 71 | 144 | 1.0 | 4.0 | 0.00 | 0.00 | 0.00 | 54 | 1007.0 |
| 20260504215708 | 72 | 243 | 0.0 | 2.0 | 0.00 | 0.00 | 0.00 | 55 | 1006.9 |
| 20260504215205 | 72 | 185 | 2.0 | 5.0 | 0.00 | 0.00 | 0.00 | 54 | 1006.7 |
| 20260504214701 | 72 | 254 | 1.0 | 2.0 | 0.00 | 0.00 | 0.00 | 55 | 1006.5 |
| 20260504214157 | 72 | 208 | 1.0 | 2.0 | 0.00 | 0.00 | 0.00 | 53 | 1006.6 |
| 20260504213654 | 73 | 191 | 3.0 | 4.0 | 0.00 | 0.00 | 0.00 | 56 | 1006.7 |
| 20260504213151 | 72 | 203 | 2.0 | 5.0 | 0.00 | 0.00 | 0.00 | 55 | 1006.7 |
| 20260504212647 | 71 | 156 | 2.0 | 3.0 | 0.00 | 0.00 | 0.00 | 56 | 1006.9 |
| 20260504212144 | 70 | 88 | 2.0 | 3.0 | 0.00 | 0.00 | 0.00 | 57 | 1007.2 |
| 20260504211642 | 70 | 63 | 0.0 | 3.0 | 0.00 | 0.00 | 0.00 | 58 | 1007.4 |
| 20260504211138 | 70 | 226 | 5.0 | 5.0 | 0.00 | 0.00 | 0.00 | 57 | 1007.8 |
| 20260504210636 | 70 | 322 | 0.0 | 2.0 | 0.00 | 0.00 | 0.00 | 58 | 1007.6 |
| 20260504210132 | 70 | 244 | 1.0 | 5.0 | 0.00 | 0.00 | 0.00 | 56 | 1007.8 |
| 20260504205629 | 70 | 263 | 2.0 | 4.0 | 0.00 | 0.00 | 0.00 | 56 | 1007.7 |
| 20260504205127 | 71 | 168 | 3.0 | 4.0 | 0.00 | 0.00 | 0.00 | 56 | 1007.8 |
| 20260504204625 | 71 | 106 | 4.0 | 4.0 | 0.00 | 0.00 | 0.00 | 59 | 1007.7 |
| 20260504204124 | 70 | 222 | 2.0 | 7.0 | 0.00 | 0.00 | 0.00 | 59 | 1007.8 |
| 20260504203622 | 70 | 234 | 2.0 | 3.0 | 0.00 | 0.00 | 0.00 | 62 | 1007.9 |
| 20260504203119 | 69 | 288 | 4.0 | 4.0 | 0.00 | 0.00 | 0.00 | 63 | 1007.7 |
| 20260504202614 | 68 | 179 | 2.0 | 4.0 | 0.00 | 0.00 | 0.00 | 62 | 1007.7 |
| 20260504202111 | 68 | 207 | 3.0 | 5.0 | 0.00 | 0.00 | 0.00 | 64 | 1007.7 |
| 20260504201608 | 67 | 180 | 1.0 | 2.0 | 0.00 | 0.00 | 0.00 | 64 | 1008.0 |
| 20260504201106 | 67 | 222 | 1.0 | 2.0 | 0.00 | 0.00 | 0.00 | 65 | 1008.2 |
| 20260504200602 | 67 | 176 | 3.0 | 4.0 | 0.00 | 0.00 | 0.00 | 64 | 1008.4 |
| 20260504200059 | 67 | 198 | 2.0 | 3.0 | 0.00 | 0.00 | 0.00 | 65 | 1008.3 |
| 20260504195555 | 68 | 318 | 2.0 | 4.0 | 0.00 | 0.00 | 0.00 | 63 | 1008.5 |
| 20260504195051 | 67 | 245 | 1.0 | 3.0 | 0.00 | 0.00 | 0.00 | 63 | 1008.7 |
| 20260504194548 | 67 | 168 | 0.0 | 3.0 | 0.00 | 0.00 | 0.00 | 62 | 1008.3 |
| 20260504194043 | 68 | 154 | 0.0 | 3.0 | 0.00 | 0.00 | 0.00 | 61 | 1008.1 |
| 20260504193540 | 68 | 33 | 1.0 | 3.0 | 0.00 | 0.00 | 0.00 | 60 | 1008.2 |
| 20260504193039 | 68 | 305 | 3.0 | 4.0 | 0.00 | 0.00 | 0.00 | 60 | 1008.4 |
| 20260504192537 | 67 | 220 | 1.0 | 4.0 | 0.00 | 0.00 | 0.00 | 61 | 1008.2 |
| 20260504192035 | 66 | 52 | 0.0 | 6.0 | 0.00 | 0.00 | 0.00 | 64 | 1008.2 |
| 20260504191532 | 67 | 254 | 2.0 | 3.0 | 0.00 | 0.00 | 0.00 | 64 | 1008.3 |
| 20260504191028 | 67 | 191 | 2.0 | 8.0 | 0.00 | 0.00 | 0.00 | 66 | 1008.8 |
| 20260504190525 | 67 | 269 | 0.0 | 2.0 | 0.00 | 0.00 | 0.00 | 65 | 1008.8 |
| 20260504190021 | 67 | 292 | 2.0 | 2.0 | 0.00 | 0.00 | 0.00 | 64 | 1008.9 |
| 20260504185518 | 66 | 197 | 2.0 | 4.0 | 0.00 | 0.00 | 0.00 | 66 | 1008.8 |
| 20260504185014 | 65 | 176 | 5.0 | 5.0 | 0.00 | 0.00 | 0.00 | 67 | 1008.9 |
| 20260504184510 | 65 | 179 | 2.0 | 2.0 | 0.00 | 0.00 | 0.00 | 69 | 1008.9 |
| 20260504184006 | 65 | 188 | 3.0 | 3.0 | 0.00 | 0.00 | 0.00 | 69 | 1009.1 |
| 20260504183503 | 65 | 184 | 3.0 | 5.0 | 0.00 | 0.00 | 0.00 | 67 | 1009.2 |
| 20260504183001 | 66 | 282 | 1.0 | 4.0 | 0.00 | 0.00 | 0.00 | 65 | 1009.4 |
| 20260504182457 | 67 | 212 | 5.0 | 6.0 | 0.00 | 0.00 | 0.00 | 61 | 1009.1 |
| 20260504181955 | 68 | 308 | 1.0 | 4.0 | 0.00 | 0.00 | 0.00 | 61 | 1009.0 |
| 20260504181452 | 68 | 251 | 3.0 | 7.0 | 0.00 | 0.00 | 0.00 | 60 | 1009.3 |
| 20260504180950 | 69 | 287 | 3.0 | 4.0 | 0.00 | 0.00 | 0.00 | 59 | 1009.0 |
| 20260504180449 | 69 | 305 | 3.0 | 4.0 | 0.00 | 0.00 | 0.00 | 59 | 1008.9 |
| 20260504175947 | 69 | 177 | 3.0 | 7.0 | 0.00 | 0.00 | 0.00 | 57 | 1008.5 |
| 20260504175444 | 69 | 168 | 1.0 | 8.0 | 0.00 | 0.00 | 0.00 | 58 | 1008.8 |
| 20260504174941 | 70 | 228 | 2.0 | 6.0 | 0.00 | 0.00 | 0.00 | 62 | 1008.8 |
| 20260504174438 | 71 | 167 | 2.0 | 6.0 | 0.00 | 0.00 | 0.00 | 55 | 1008.5 |
| 20260504173936 | 71 | 247 | 2.0 | 6.0 | 0.00 | 0.00 | 0.00 | 57 | 1008.4 |
| 20260504173432 | 70 | 137 | 1.0 | 5.0 | 0.00 | 0.00 | 0.00 | 58 | 1008.3 |
| 20260504172930 | 70 | 345 | 0.0 | 4.0 | 0.00 | 0.00 | 0.00 | 59 | 1008.3 |
| 20260504172425 | 70 | 180 | 3.0 | 3.0 | 0.00 | 0.00 | 0.00 | 58 | 1008.1 |
| 20260504171922 | 71 | 213 | 0.0 | 3.0 | 0.00 | 0.00 | 0.00 | 57 | 1008.2 |
| 20260504171420 | 70 | 172 | 5.0 | 7.0 | 0.00 | 0.00 | 0.00 | 56 | 1008.2 |
| 20260504170916 | 70 | 287 | 3.0 | 5.0 | 0.00 | 0.00 | 0.00 | 62 | 1008.4 |
| 20260504170413 | 70 | 79 | 1.0 | 7.0 | 0.00 | 0.00 | 0.00 | 60 | 1008.6 |
| 20260504160331 | 66 | 153 | 2.0 | 2.0 | 0.00 | 0.00 | 0.00 | 63 | 1009.2 |
| 20260504150756 | 64 | 186 | 0.0 | 3.0 | 0.00 | 0.00 | 0.00 | 63 | 1009.3 |
| 20260504150253 | 66 | 162 | 1.0 | 6.0 | 0.00 | 0.00 | 0.00 | 60 | 1009.2 |
| 20260504141223 | 64 | 239 | 2.0 | 4.0 | 0.00 | 0.00 | 0.00 | 62 | 1009.3 |
| 20260504140719 | 63 | 162 | 1.0 | 5.0 | 0.00 | 0.00 | 0.00 | 61 | 1009.3 |
| 20260504140215 | 63 | 172 | 2.0 | 4.0 | 0.00 | 0.00 | 0.00 | 61 | 1009.6 |
| 20260504130643 | 56 | 128 | 2.0 | 3.0 | 0.00 | 0.00 | 0.00 | 72 | 1009.6 |
| 20260504130140 | 56 | 101 | 0.0 | 3.0 | 0.00 | 0.00 | 0.00 | 71 | 1009.6 |
| 20260504120104 | 52 | 107 | 0.0 | 2.0 | 0.00 | 0.00 | 0.00 | 75 | 1009.5 |
| 20260504110531 | 50 | 162 | 1.0 | 2.0 | 0.00 | 0.00 | 0.00 | 77 | 1009.6 |
| 20260504100453 | 47 | 119 | 0.0 | 2.0 | 0.00 | 0.00 | 0.00 | 82 | 1009.9 |
| 20260504081846 | 50 | 147 | 0.0 | 2.0 | 0.00 | 0.00 | 0.00 | 74 | 1010.6 |
| 20260504081343 | 50 | 165 | 1.0 | 2.0 | 0.00 | 0.00 | 0.00 | 68 | 1010.6 |
| 20260504080839 | 51 | 140 | 1.0 | 2.0 | 0.00 | 0.00 | 0.00 | 67 | 1010.6 |
| 20260504080336 | 50 | 119 | 2.0 | 2.0 | 0.00 | 0.00 | 0.00 | 67 | 1010.6 |
| 20260504070303 | 50 | 147 | 2.0 | 3.0 | 0.00 | 0.00 | 0.00 | 68 | 1011.0 |
| 20260504060224 | 50 | 142 | 2.0 | 2.0 | 0.00 | 0.00 | 0.00 | 68 | 1011.8 |